Zurück zum Katalog

STARLINK-11468

AktivKommunikationVLEO
NORAD 62221·PAYLOAD·🇺🇸 United States

Gestartet Dec 5, 2024 von Vandenberg Space Force Base

Loading…

Nächste Überflüge (nächste 24 Stunden)

TLE

AktuellSource: CelesTrak SupGP

Epoche: Sep 14, 2026, 21:06 UTC

1 62221C 24231D   26257.87965278  .00049986  00000+0  41175-3 0  2572
2 62221  53.1572 248.9182 0001196  87.6177 211.4877 15.69684322    12

Verfolge STARLINK-11468 in Echtzeit mit AllMySat

Download on the App Store